Regional Weather Roundup
Issued by NWS Columbia, SC

Home | Current Version | Previous Version | Text Only | Print | Product List | Glossary On
Versions: 1 2 3 4 5 6 7 8 9 10 11 12 13 14 15 16 17 18 19 20 21 22 23 24 25 26 27
000
ASUS42 KCAE 190310
RWRCAE
REGIONAL WEATHER ROUNDUP
NATIONAL WEATHER SERVICE COLUMBIA SC
1100 PM EDT WED OCT 18 2017

NOTE: "FAIR" INDICATES FEW OR NO CLOUDS BELOW 12,000 FEET WITH NO
SIGNIFICANT WEATHER AND/OR OBSTRUCTIONS TO VISIBILITY.

NOT ALL STATIONS ARE QUALITY CONTROLLED BY THE NATIONAL
WEATHER SERVICE. USE DATA WITH CAUTION...ESPECIALLY
DEWPOINT OBSERVATIONS.

SCZ001>056-GAZ040-063>065-077-190400-
...UPSTATE SOUTH CAROLINA...

CITY           SKY/WX    TMP DP  RH WIND       PRES   REMARKS
ANDERSON       CLEAR     47  44  90 CALM      30.32S
LIBERTY        CLEAR     46  45  99 CALM      30.32S
SPARTANBURG    CLEAR     46  45  93 CALM      30.32S
CLEMSON        CLEAR     54  49  83 CALM      30.34R
GREENVILLE     CLEAR     55  43  63 CALM      30.33S
GREENWOOD      CLEAR     46  45  96 CALM      30.33S
GREER          CLEAR     50  46  86 N3        30.33S
ROCK HILL      CLEAR     45  43  93 CALM      30.33S
CHESTER        CLEAR     50  37  62 CALM      30.33S
LAURENS        CLEAR     45  43  93 NE3       30.31F


...CENTRAL SOUTH CAROLINA...

CITY           SKY/WX    TMP DP  RH WIND       PRES   REMARKS
COLUMBIA APT   CLEAR     50  46  86 CALM      30.30F
MCENTIRE ANGB  CLEAR     47  44  88 NW3       30.31S
ORANGEBURG     CLEAR     52  49  89 CALM      30.30S
SUMTER SHAW    CLEAR     54  41  61 NE6       30.28S
NEWBERRY       CLEAR     50  43  76 E5        30.34S
AIKEN          FAIR      45  41  87 CALM      30.34S
BARNWELL         N/A     55  45  67 CALM      30.30S
MANNING        FOG       50  50 100 MISG      30.30S VSB<1/4
CAMDEN         CLOUDY    52  41  66 CALM      30.32S
LANCASTER      CLEAR     48  41  76 CALM      30.32F
WINNSBORO      CLEAR     55  37  50 E5        30.31S


...EASTERN AND COASTAL SOUTH CAROLINA...

CITY           SKY/WX    TMP DP  RH WIND       PRES   REMARKS
N MYRTLE BCH   CLEAR     59  55  87 N5        30.28S
CONWAY         FAIR      54  54 100 CALM      30.29S
MARION         FAIR     N/A N/A N/A CALM      30.31R
HARTSVILLE     FAIR      55  41  58 NE5       30.31F
FLORENCE       CLEAR     55  48  77 N6        30.31S
DARLINGTON     CLEAR     50  46  86 N3        30.32S
CHARLESTON APT CLEAR     60  56  86 NE6       30.27S
MOUNT PLEASANT FAIR      63  57  82 CALM      30.26F
WALTERBORO     CLEAR     55  52  88 N5        30.29S
BEAUFORT       CLEAR     63  58  83 NE5       30.27S


...EASTERN GEORGIA...

CITY           SKY/WX    TMP DP  RH WIND       PRES   REMARKS
AUGUSTA BUSH F CLEAR     49  45  86 CALM      30.30S
AUGUSTA DANIEL CLEAR     62  39  42 NE7       30.31S
THOMSON        CLEAR     46  44  91 CALM      30.36R
WASHINGTON     FAIR      50  45  81 CALM      30.31S
CLAXTON        FAIR      59  57  95 CALM      30.28R
SYLVANIA       CLEAR     60  52  75 CALM      30.30R
STATESBORO     CLEAR     58  51  76 CALM      30.29R
SAVANNAH       CLEAR     62  57  83 N7        30.27S


...SOUTHERN NORTH CAROLINA...

CITY           SKY/WX    TMP DP  RH WIND       PRES   REMARKS
CHARLOTTE      PTCLDY    60  40  47 CALM      30.33S
MONROE         CLEAR     45  41  86 CALM      30.32S
WADESBORO      CLEAR     45  42  89 CALM      30.32F
RUTHERFORDTON  CLEAR     47  47 100 NW3       30.34S
ASHEVILLE      CLOUDY    48  44  86 CALM      30.36R

$$




USA.gov is the U.S. government's official web portal to all federal, state and local government web resources and services.